This is the latest recevied weather packets stored in our database for station/object DO6MJ-1. If no packets are shown the sender has not sent any weather packets the latest 10 day(s).
| Time | Temp. | Humidity | Pressure | Rain* | Wind** | Luminosity | Snow |
|---|---|---|---|---|---|---|---|
| 1787384592 | 16.11° C | 86% | 1006.7 hPa | 0 mm | - | - | - |
| 1787383392 | 15.56° C | 91% | 1006.6 hPa | 0 mm | - | - | - |
| 1787382192 | 13.89° C | 91% | 1006.4 hPa | 0 mm | - | - | - |
| 1787380991 | 13.33° C | 91% | 1006.2 hPa | 0 mm | - | - | - |
| 1787379791 | 13.33° C | 90% | 1006.1 hPa | 0 mm | - | - | - |
| 1787378591 | 12.78° C | 89% | 1005.8 hPa | 0 mm | - | - | - |
| 1787377390 | 13.33° C | 88% | 1005.8 hPa | 0 mm | - | - | - |
| 1787376190 | 13.33° C | 89% | 1005.6 hPa | 0 mm | - | - | - |
| 1787374990 | 12.78° C | 89% | 1005.3 hPa | 0 mm | - | - | - |
| 1787373790 | 12.78° C | 89% | 1005.2 hPa | 0 mm | - | - | - |
| 1787372589 | 12.78° C | 89% | 1005 hPa | 0 mm | - | - | - |
| 1787371389 | 12.78° C | 88% | 1004.9 hPa | 0 mm | - | - | - |
| 1787370189 | 12.78° C | 88% | 1004.8 hPa | 0 mm | - | - | - |
| 1787368988 | 12.78° C | 88% | 1004.7 hPa | 0 mm | - | - | - |
| 1787367788 | 13.33° C | 88% | 1004.6 hPa | 0 mm | - | - | - |
| 1787366588 | 13.33° C | 87% | 1004.5 hPa | 0 mm | - | - | - |
| 1787365388 | 13.33° C | 88% | 1004.4 hPa | 0 mm | - | - | - |
| 1787364187 | 13.33° C | 87% | 1004.4 hPa | 0 mm | - | - | - |
| 1787362987 | 13.89° C | 87% | 1004.4 hPa | 0 mm | - | - | - |
| 1787361787 | 13.89° C | 87% | 1004.4 hPa | 0 mm | - | - | - |
| 1787360586 | 13.33° C | 87% | 1004.3 hPa | 0 mm | - | - | - |
| 1787359386 | 13.33° C | 86% | 1004.1 hPa | 0 mm | - | - | - |
| 1787358186 | 13.89° C | 86% | 1003.8 hPa | 0 mm | - | - | - |
| 1787356986 | 14.44° C | 86% | 1003.8 hPa | 0 mm | - | - | - |
* Rain latest hour (hover to see other rain measurements)
** Current wind speed in m/s (hover to see current wind gust speed)